This is the latest recevied weather packets stored in our database for station/object JG6YPS-13. If no packets are shown the sender has not sent any weather packets the latest 10 day(s).
| Time | Temp. | Humidity | Pressure | Rain* | Wind** | Luminosity | Snow |
|---|---|---|---|---|---|---|---|
| 1777814964 | 16.67° C | 88% | 1007.7 hPa | 0 mm | - | - | - |
| 1777814364 | 16.67° C | 88% | 1007.7 hPa | 0 mm | - | - | - |
| 1777813765 | 16.67° C | 88% | 1007.7 hPa | 0 mm | - | - | - |
| 1777813165 | 17.22° C | 90% | 1007.5 hPa | 0 mm | - | - | - |
| 1777812566 | 17.22° C | 90% | 1007.3 hPa | 0 mm | - | - | - |
| 1777811966 | 17.22° C | 90% | 1006.9 hPa | 0 mm | - | - | - |
| 1777811367 | 17.22° C | 90% | 1007.1 hPa | 0 mm | - | - | - |
| 1777810767 | 17.78° C | 91% | 1006.9 hPa | 0 mm | - | - | - |
| 1777810168 | 17.78° C | 92% | 1006.9 hPa | 0 mm | - | - | - |
| 1777809568 | 17.78° C | 92% | 1006.6 hPa | 0 mm | - | - | - |
| 1777808968 | 17.78° C | 92% | 1006.4 hPa | 0 mm | - | - | - |
| 1777808369 | 18.33° C | 93% | 1006.2 hPa | 0 mm | - | - | - |
| 1777807769 | 18.33° C | 93% | 1006.1 hPa | 0 mm | - | - | - |
| 1777807169 | 18.33° C | 92% | 1005.9 hPa | 0 mm | - | - | - |
| 1777806570 | 18.33° C | 93% | 1005.9 hPa | 0 mm | - | - | - |
| 1777805970 | 18.89° C | 92% | 1005.8 hPa | 0 mm | - | - | - |
| 1777805370 | 18.89° C | 93% | 1005.6 hPa | 0.25 mm | - | - | - |
| 1777804771 | 19.44° C | 93% | 1005.5 hPa | 0.25 mm | - | - | - |
| 1777804171 | 19.44° C | 94% | 1005.3 hPa | 1.02 mm | - | - | - |
| 1777803571 | 19.44° C | 94% | 1005.1 hPa | 1.27 mm | - | - | - |
| 1777802972 | 19.44° C | 94% | 1004.9 hPa | 2.79 mm | - | - | - |
| 1777802372 | 19.44° C | 94% | 1004.7 hPa | 4.57 mm | - | - | - |
| 1777801772 | 19.44° C | 94% | 1004.7 hPa | 4.57 mm | - | - | - |
| 1777801172 | 19.44° C | 94% | 1004.4 hPa | 5.08 mm | - | - | - |
| 1777800573 | 19.44° C | 95% | 1004 hPa | 5.33 mm | - | - | - |
* Rain latest hour (hover to see other rain measurements)
** Current wind speed in m/s (hover to see current wind gust speed)